[Date Prev][Date Next][Thread Prev][Thread Next] - [Date Index][Thread Index][Author Index]

2 Line ISS Keps 6-14



ISS
1 25544U 98067A   03165.39901620  .00032350  00000-0  40386-3 0  1163
2 25544  51.6333  34.2480 0006364 255.2590 102.4853 15.59538765260567


----
Via the sarex mailing list at AMSAT.ORG courtesy of AMSAT-NA.
To unsubscribe, send "unsubscribe sarex" to Majordomo@amsat.org



AMSAT Top AMSAT Home